Retour au catalogue

STARLINK-32668

ActifCommunicationsVLEO
NORAD 62212·PAYLOAD·🇺🇸 United States

Lancé Dec 4, 2024 depuis Cape Canaveral Space Force Station

Loading…

Prochains Passages (prochaines 24 heures)

TLE

FraisSource: CelesTrak SupGP

Époque: Sep 14, 2026, 14:06 UTC

1 62212C 24229W   26257.58798611  .00041318  00000+0  14966-2 0  2570
2 62212  43.0000 280.6860 0001436 275.2653 253.8340 15.27556517    16

Suivez STARLINK-32668 en temps réel avec AllMySat

Download on the App Store